Regional Weather Roundup
Issued by NWS Upton, NY

Current Version | Previous Version | Text Only | Print | Product List | Glossary On
Versions: 1 2 3 4 5 6 7 8 9 10 11 12 13 14 15 16 17 18 19 20 21 22 23 24 25 26 27 28 29 30 31 32 33 34 35 36 37 38 39 40 41 42 43 44 45 46 47 48 49 50
000 ASUS41 KOKX 011708 RWROKX REGIONAL WEATHER ROUNDUP NATIONAL WEATHER SERVICE NEW YORK NY 100 PM EDT WED JUL 01 2015 NOTE: "FAIR" INDICATES FEW OR NO CLOUDS BELOW 12,000 FEET WITH NO SIGNIFICANT WEATHER AND/OR OBSTRUCTIONS TO VISIBILITY. NYZ071-072-176-178-NJZ106-104-011800- NEW YORK CITY METRO AREA CITY SKY/WX TMP DP RH WIND PRES REMARKS CENTRAL PARK MOSUNNY 78 61 55 MISG 29.82S LAGUARDIA APRT PTSUNNY 79 62 56 SW13G18 29.78F KENNEDY INTL MOSUNNY 81 65 58 SW14 29.81S NEWARK/LIBERTY MOSUNNY 81 63 54 W17G23 29.79S BRNX BOT. GARD N/A 79 61 53 W17 29.79F TETERBORO MOSUNNY 80 62 54 W8 29.78S $$ NYZ177-179-078>081-011800- LONG ISLAND NEW YORK CITY SKY/WX TMP DP RH WIND PRES REMARKS FARMINGDALE MOSUNNY 78 65 63 SW15 29.80S ISLIP MOSUNNY 78 66 66 SW14G23 29.78F SHIRLEY MOSUNNY 77 67 71 SW14G22 29.80F WESTHAMPTON MOSUNNY 76 68 76 SW18G25 29.80F MONTAUK POINT N/A 76 67 73 SW10G20 29.79F $$ NYZ052-065-067-011800- HUDSON VALLEY CITY SKY/WX TMP DP RH WIND PRES REMARKS WHITE PLAINS MOSUNNY 78 62 57 W10G17 29.78F NEWBURGH PTSUNNY 75 66 73 MISG 29.79S MONTGOMERY MOSUNNY 78 63 59 SW15 29.77S POUGHKEEPSIE PTSUNNY 78 63 59 SW12 29.76S ALBANY PTSUNNY 76 66 71 S9 29.71F $$ NJZ001-105-106-008-010-013-015-019>022-104-011800- NEW JERSEY CITY SKY/WX TMP DP RH WIND PRES REMARKS NEWARK/LIBERTY MOSUNNY 81 63 54 W17G23 29.79S TETERBORO MOSUNNY 80 62 54 W8 29.78S CALDWELL PTSUNNY 78 62 57 SW9 29.80S MORRISTOWN PTSUNNY 82 66 57 W13G20 29.80S SOMERVILLE MOSUNNY 78 63 59 VRB3 29.79S SUSSEX LGT RAIN 76 62 62 SW5 29.79F ANDOVER N/A 76 63 64 VRB7 29.81S TRENTON PTSUNNY 80 65 59 SW10 29.81S MILLVILLE MOSUNNY 81 65 58 SW10 29.85S ATLANTIC CITY SUNNY 82 63 52 SW13G18 29.84S WRIGHTSTOWN MOSUNNY 81 66 60 W14 29.80S TOMS RIVER MOSUNNY 84 63 48 SW10G17 29.82F BELMAR PTSUNNY 81 64 57 W8 29.81F $$ PAZ047>061-062-071-011800- EASTERN PENNSYLVANIA CITY SKY/WX TMP DP RH WIND PRES REMARKS PHILADELPHIA MOSUNNY 83 61 47 SW13 29.83S ALLENTOWN PTSUNNY 78 64 61 W8G25 29.82S SCRANTON CLOUDY 72 60 66 SW9G17 29.83R $$ CTZ002-004>006-009-010-012-RIZ004-006-007-MAZ004-011-015-011800- SOUTHERN NEW ENGLAND IN CT CITY SKY/WX TMP DP RH WIND PRES REMARKS BRADLEY INTL PTSUNNY 79 66 64 SW12 29.72F HARTFORD MOSUNNY 79 68 69 S13G22 29.72F DANBURY PTSUNNY 77 63 61 SW10 29.78F WTRBRY/OXFORD PTSUNNY 75 64 69 SW7 29.80S BRIDGEPORT SUNNY 79 67 66 SW14 29.77F MERIDEN PTSUNNY 79 66 64 S9G20 29.75F NEW HAVEN MOSUNNY 76 67 73 SW9 29.77F CHESTER FAIR 75 66 73 SW14 29.78F GROTON MOSUNNY 76 67 73 SW13 29.76F WILLIMANTIC PTSUNNY 79 66 64 SW17G23 29.74F IN RI CITY SKY/WX TMP DP RH WIND PRES REMARKS PROVIDENCE MOSUNNY 79 67 66 SW12G22 29.75F BLOCK ISLAND SUNNY 73 64 73 SW18G26 29.79F WESTERLY SUNNY 77 66 68 SW14 29.78F IN MA CITY SKY/WX TMP DP RH WIND PRES REMARKS BOSTON PTSUNNY 74 68 81 S10 29.73F WORCESTER PTSUNNY 73 65 75 SW12 29.75F WESTFIELD PTSUNNY 76 68 76 S6 29.72F PROVINCETOWN CLOUDY 70 12 11 SE12G17 29.78F NANTUCKET CLOUDY 71 68 90 S12 29.81F FOG $$ ANZ330-335-338-340-345-350-353-355-011800- COASTAL MARINE OBSERVATIONS STATION/POSITION TIME SKY/WX TEMP WIND PRES VSBY WAVE AIR SEA DIR/SP/G HT/PER (UTC) (F) (DEG/KT/KT) (MB) (MI) (FT/S) NY HARB ENTRANCE 1650 72 71 190/ 10/ 10 1009.1 3/ 5 4S FIRE IS 1603 67 N/A 4/ 8 20S FIRE ISLAND 1650 69 67 220/ 14/ 16 1009.3 4/ 8 GREAT SOUTH BAY NOT AVBL 23SW MTP 1650 68 65 230/ 16/ 17 1008.8 4/ 6 HUDSON CANYON NOT AVBL KINGS POINT 1600 74 65 270/ 5/ 9 1008.2 CENTRAL LI SOUND NOT AVBL EASTERN LI SOUND 1600 69 63 220/ 12/ 16 N/A ROBBINS REEF 1600 75 240/ 10/ 15 1008.0 $$ >>>>>>>>>>>>>>>>>>>>>>>>>>>> KEY <<<<<<<<<<<<<<<<<<<<<<<<<<< > < > SKY/WX - SKY CONDITION/PRESENT WEATHER < > TMP - TEMPERATURE IN FAHRENHEIT < > DP - DEWPOINT IN FAHRENHEIT < > RH - RELATIVE HUMIDITY IN PERCENT < > WIND - DIRECTION AND SPEED IN MPH < > PRES - MEAN SEA LEVEL PRESSURE IN INCHES OF HG < > WCI - WIND CHILL INDEX < > VSB - VISIBILITY IN MILES < > HX - HEAT INDEX < > TC - TEMPERATURE IN CELSIUS < > VRB - VARIABLE WIND DIRECTION < > < >>>>>>>>>>>>>>>>>>>>>>>>>>>> KEY <<<<<<<<<<<<<<<<<<<<<<<<<<<

USA.gov is the U.S. government's official web portal to all federal, state and local government web resources and services.